Tillbaka till svenska Fidonet
English   Information   Debug  
FILM   0/18
FNEWS_PUBLISH   4983
FN_SYSOP   42232
FN_SYSOP_OLD1   71952
FTP_FIDO   0/2
FTSC_PUBLIC   0/13976
FUNNY   0/4886
GENEALOGY.EUR   0/71
GET_INFO   105
GOLDED   0/408
HAM   4630/16727
HOLYSMOKE   0/6791
HOT_SITES   0/1
HTMLEDIT   0/71
HUB203   466
HUB_100   264
HUB_400   39
HUMOR   0/29
IC   776/2851
INTERNET   0/424
INTERUSER   0/3
IP_CONNECT   719
JAMNNTPD   0/233
JAMTLAND   0/47
KATTY_KORNER   0/41
LAN   0/16
LINUX-USER   0/19
LINUXHELP   0/1155
LINUX   0/22392
LINUX_BBS   0/957
mail   18.68
mail_fore_ok   249
MENSA   0/341
MODERATOR   0/102
MONTE   0/992
MOSCOW_OKLAHOMA   0/1245
MUFFIN   0/783
MUSIC   0/321
N203_STAT   938
N203_SYSCHAT   313
NET203   321
NET204   69
NET_DEV   0/10
NORD.ADMIN   0/101
NORD.CHAT   0/2572
NORD.FIDONET   189
NORD.HARDWARE   0/28
NORD.KULTUR   0/114
NORD.PROG   0/32
NORD.SOFTWARE   0/88
NORD.TEKNIK   0/58
NORD   0/453
OCCULT_CHAT   0/93
OS2BBS   0/787
OS2DOSBBS   0/580
OS2HW   0/42
OS2INET   0/37
OS2LAN   0/134
OS2PROG   0/36
OS2REXX   0/113
OS2USER-L   207
OS2   0/4831
OSDEBATE   0/18996
PASCAL   0/490
PERL   0/457
PHP   0/45
POINTS   0/405
POLITICS   0/29554
POL_INC   8408/14731
PSION   103
R20_ADMIN   1133
R20_AMATORRADIO   0/2
R20_BEST_OF_FIDONET   16
R20_CHAT   0/897
R20_DEPP   0/3
R20_DEV   400
R20_ECHO2   1891
R20_ECHOPRES   0/35
R20_ESTAT   0/719
R20_FIDONETPROG...
...RAM.MYPOINT
  0/2
R20_FIDONETPROGRAM   0/22
R20_FIDONET   0/248
R20_FILEFIND   0/24
R20_FILEFOUND   0/22
R20_HIFI   0/3
R20_INFO2   3784
R20_INTERNET   0/12940
R20_INTRESSE   0/60
R20_INTR_KOM   0/99
R20_KANDIDAT.CHAT   42
R20_KANDIDAT   28
R20_KOM_DEV   112
R20_KONTROLL   0/13360
R20_KORSET   0/18
R20_LOKALTRAFIK   0/24
R20_MODERATOR   0/1852
R20_NC   76
R20_NET200   245
R20_NETWORK.OTH...
...ERNETS
  0/13
R20_OPERATIVSYS...
...TEM.LINUX
  0/44
R20_PROGRAMVAROR   0/1
R20_REC2NEC   534
R20_SFOSM   0/341
R20_SF   0/108
R20_SPRAK.ENGLISH   0/1
R20_SQUISH   107
R20_TEST   2
R20_WORST_OF_FIDONET   20
RAR   0/9
RA_MULTI   106
RA_UTIL   0/162
REGCON.EUR   0/2069
REGCON   0/13
SCIENCE   0/1206
SF   0/239
SHAREWARE_SUPPORT   0/5146
SHAREWRE   0/14
SIMPSONS   0/169
STATS_OLD1   0/2539.065
STATS_OLD2   0/2530
STATS_OLD3   0/2395.095
STATS_OLD4   0/1692.25
SURVIVOR   0/495
SYSOPS_CORNER   0/3
SYSOP   0/84
TAGLINES   0/112
TEAMOS2   0/4530
TECH   0/2617
TEST.444   0/105
TRAPDOOR   0/19
TREK   0/755
TUB   0/290
UFO   0/40
UNIX   0/1316
USA_EURLINK   0/102
USR_MODEMS   0/1
VATICAN   0/2740
VIETNAM_VETS   0/14
VIRUS   0/378
VIRUS_INFO   0/201
VISUAL_BASIC   0/473
WHITEHOUSE   0/5187
WIN2000   0/101
WIN32   0/30
WIN95   0/4291
WIN95_OLD1   0/70272
WINDOWS   0/1517
WWB_SYSOP   0/419
WWB_TECH   272/810
ZCC-PUBLIC   0/1
ZEC   4

 
4DOS   0/134
ABORTION   0/7
ALASKA_CHAT   0/506
ALLFIX_FILE   0/1313
ALLFIX_FILE_OLD1   0/7997
ALT_DOS   0/152
AMATEUR_RADIO   0/1039
AMIGASALE   0/14
AMIGA   0/331
AMIGA_INT   0/1
AMIGA_PROG   0/20
AMIGA_SYSOP   0/26
ANIME   0/15
ARGUS   0/924
ASCII_ART   0/340
ASIAN_LINK   0/651
ASTRONOMY   0/417
AUDIO   0/92
AUTOMOBILE_RACING   0/105
BABYLON5   0/17862
BAG   135
BATPOWER   0/361
BBBS.ENGLISH   0/382
BBSLAW   0/109
BBS_ADS   0/5290
BBS_INTERNET   0/507
BIBLE   0/3563
BINKD   0/1119
BINKLEY   0/215
BLUEWAVE   0/2173
CABLE_MODEMS   0/25
CBM   0/46
CDRECORD   0/66
CDROM   0/20
CLASSIC_COMPUTER   0/378
COMICS   0/15
CONSPRCY   0/899
COOKING   42028
COOKING_OLD1   0/24719
COOKING_OLD2   15300/40862
COOKING_OLD3   0/37489
COOKING_OLD4   0/35496
COOKING_OLD5   9370
C_ECHO   0/189
C_PLUSPLUS   0/31
DIRTY_DOZEN   0/201
DOORGAMES   0/2333
DOS_INTERNET   0/196
duplikat   6102
ECHOLIST   9091/18295
EC_SUPPORT   0/318
ELECTRONICS   0/359
ELEKTRONIK.GER   1534
ENET.LINGUISTIC   0/13
ENET.POLITICS   0/4
ENET.SOFT   0/11701
ENET.SYSOP   34336
ENET.TALKS   0/32
ENGLISH_TUTOR   0/2000
EVOLUTION   0/1335
FDECHO   0/217
FDN_ANNOUNCE   0/7068
FIDONEWS   25122
FIDONEWS_OLD1   0/49742
FIDONEWS_OLD2   0/35949
FIDONEWS_OLD3   0/30874
FIDONEWS_OLD4   0/37224
FIDO_SYSOP   12973
FIDO_UTIL   0/180
FILEFIND   0/209
FILEGATE   0/212
Möte HAM, 16727 texter
 lista första sista föregående nästa
Text 4655, 909 rader
Skriven 2011-08-11 23:30:52 av Amsat List (1:323/120.0)
Ärende: [keps] orb11223.amsa
============================
[keps] orb11223.amsa

Sender: keps-bounces@amsat.org
Return-Path: <keps-bounces@amsat.org>
X-Rcpt: craig.healy@chowda.com
X-UIDL: 1313118809.913

SB KEPS @ AMSAT  $ORB11223.O
Orbital Elements  11223.OSCAR

HR AMSAT ORBITAL ELEMENTS FOR OSCAR SATELLITES
FROM WA5QGD FORT WORTH,TX August 11, 2011
Send Subscribe/unsubscribe to KEPS at http://www.amsat.org/mailman/listinfo/kep
BID: ORB11223.O
TO ALL RADIO AMATEURS BT

Satellite: AO-07
Catalog number: 07530
Epoch time:      11222.90300565
Element set:    0153
Inclination:      101.3938 deg
RA of node:       227.2872 deg
Eccentricity:    0.0011795
Arg of perigee:   171.0452 deg
Mean anomaly:     189.0829 deg
Mean motion:   12.53583441 rev/day
Decay rate:       -2.7e-07 rev/day^2
Epoch rev:           68104
Checksum:              278

Satellite: FO-29
Catalog number: 24278
Epoch time:      11222.92815190
Element set:    0648
Inclination:      098.5551 deg
RA of node:       359.6954 deg
Eccentricity:    0.0351262
Arg of perigee:   115.3487 deg
Mean anomaly:     248.4459 deg
Mean motion:   13.52964615 rev/day
Decay rate:        4.1e-07 rev/day^2
Epoch rev:           73986
Checksum:              344

Satellite: SO-33
Catalog number: 25509
Epoch time:      11223.58581424
Element set:      31
Inclination:      031.4358 deg
RA of node:       290.9700 deg
Eccentricity:    0.0353438
Arg of perigee:   006.0341 deg
Mean anomaly:     354.4405 deg
Mean motion:   14.28437863 rev/day
Decay rate:        5.7e-07 rev/day^2
Epoch rev:           66820
Checksum:              284

Satellite: RS-22
Catalog number: 27939
Epoch time:      11223.87229453
Element set:     527
Inclination:      097.8419 deg
RA of node:       075.1942 deg
Eccentricity:    0.0013555
Arg of perigee:   163.4111 deg
Mean anomaly:     196.7544 deg
Mean motion:   14.63622408 rev/day
Decay rate:       1.97e-06 rev/day^2
Epoch rev:           42048
Checksum:              316

Satellite: VO-52
Catalog number: 28650
Epoch time:      11222.64530378
Element set:    0869
Inclination:      097.6384 deg
RA of node:       263.3298 deg
Eccentricity:    0.0026541
Arg of perigee:   345.8681 deg
Mean anomaly:     014.1756 deg
Mean motion:   14.82136675 rev/day
Decay rate:       3.66e-06 rev/day^2
Epoch rev:           33881
Checksum:              333

Satellite: SO-67
Catalog number: 35870
Epoch time:      11223.94328630
Element set:     115
Inclination:      097.2770 deg
RA of node:       265.4379 deg
Eccentricity:    0.0002426
Arg of perigee:   147.2380 deg
Mean anomaly:     294.0447 deg
Mean motion:   15.20953913 rev/day
Decay rate:      1.791e-05 rev/day^2
Epoch rev:           10541
Checksum:              300

Satellite: HO-68
Catalog number: 36122
Epoch time:      11223.72442419
Element set:     639
Inclination:      100.4110 deg
RA of node:       283.6843 deg
Eccentricity:    0.0007850
Arg of perigee:   098.6685 deg
Mean anomaly:     261.5314 deg
Mean motion:   13.16287721 rev/day
Decay rate:       -4.4e-07 rev/day^2
Epoch rev:            7954
Checksum:              296

/EX
SB KEPS @ AMSAT  $ORB11223.D
Orbital Elements  11223.MICROS

HR AMSAT ORBITAL ELEMENTS FOR THE MICROSATS
FROM WA5QGD FORT WORTH,TX August 11, 2011
Send Subscribe/unsubscribe to KEPS at http://www.amsat.org/mailman/listinfo/kep
BID: ORB11223.D
TO ALL RADIO AMATEURS BT

Satellite: UO-11
Catalog number: 14781
Epoch time:      11222.90200924
Element set:    0638
Inclination:      098.0017 deg
RA of node:       279.4278 deg
Eccentricity:    0.0008438
Arg of perigee:   329.5551 deg
Mean anomaly:     030.5166 deg
Mean motion:   14.80010607 rev/day
Decay rate:     -.00000000 rev/day^2
Epoch rev:           47388
Checksum:              273

Satellite: AO-16
Catalog number: 20439
Epoch time:      11222.87474148
Element set:    0267
Inclination:      098.3880 deg
RA of node:       170.6750 deg
Eccentricity:    0.0011413
Arg of perigee:   006.3135 deg
Mean anomaly:     353.8188 deg
Mean motion:   14.31932723 rev/day
Decay rate:        7.2e-07 rev/day^2
Epoch rev:           12544
Checksum:              288

Satellite: LO-19
Catalog number: 20442
Epoch time:      11223.92377145
Element set:     171
Inclination:      098.3497 deg
RA of node:       175.8264 deg
Eccentricity:    0.0011897
Arg of perigee:   356.6511 deg
Mean anomaly:     003.4589 deg
Mean motion:   14.32157393 rev/day
Decay rate:        4.3e-07 rev/day^2
Epoch rev:           12577
Checksum:              311

Satellite: AO-27
Catalog number: 22825
Epoch time:      11222.89165641
Element set:     885
Inclination:      098.5351 deg
RA of node:       166.2254 deg
Eccentricity:    0.0009161
Arg of perigee:   111.5917 deg
Mean anomaly:     248.6236 deg
Mean motion:   14.29357763 rev/day
Decay rate:        6.3e-07 rev/day^2
Epoch rev:           93200
Checksum:              308

Satellite: IO-26
Catalog number: 22826
Epoch time:      11223.86090398
Element set:     631
Inclination:      098.5269 deg
RA of node:       167.6311 deg
Eccentricity:    0.0009972
Arg of perigee:   103.0237 deg
Mean anomaly:     257.2059 deg
Mean motion:   14.29621162 rev/day
Decay rate:        6.7e-07 rev/day^2
Epoch rev:           93226
Checksum:              307

Satellite: GO-32
Catalog number: 25397
Epoch time:      11222.95993728
Element set:    0552
Inclination:      098.3288 deg
RA of node:       212.6024 deg
Eccentricity:    0.0002257
Arg of perigee:   106.5016 deg
Mean anomaly:     253.6439 deg
Mean motion:   14.23214701 rev/day
Decay rate:       -6.4e-07 rev/day^2
Epoch rev:           67975
Checksum:              306

